Beaufort, NC

11:55 AM EDT on August 19, 2017 (GMT -0400)
Smith

Weather History for KMRH - February, 2013

Change the Weather History Date:

Monday, February 25, 2013

  Actual Average Record
Temperature  
Mean Temperature 42 °F -  
Max Temperature 45 °F 59 °F 72 °F (2017)
Min Temperature 39 °F 38 °F 13 °F (1967)
Degree Days  
Heating Degree Days 23    
Moisture  
Dew Point 36 °F    
Average Humidity 78    
Maximum Humidity 100    
Minimum Humidity 58    
Precipitation  
Precipitation 0.00 in - - ()
Sea Level Pressure  
Sea Level Pressure 30.10 in    
Wind  
Wind Speed 7 mph (NE)    
Max Wind Speed 17 mph    
Max Gust Speed 25 mph    
Visibility 7 miles    
Events Fog    
Averages and records for this station are not official NWS values.
T = Trace of Precipitation, MM = Missing Value Source: NWS Daily Summary

Daily Weather History Graph

Daily Weather History Graph

Search for Another Location

Airport or City:

Trip Planner

Search our weather history database for the weather conditions in past years. The results will help you decide how hot, cold, wet, or windy it might be!

Date:

Astronomy

Feb. 25, 2013 Rise Set
Actual Time 6:40 AM EST 5:59 PM EST
Civil Twilight 6:15 AM EST 6:24 PM EST
Nautical Twilight 5:45 AM EST 6:53 PM EST
Astronomical Twilight 5:16 AM EST 7:23 PM EST
Moon 6:07 PM EST (2/25) 6:11 AM EST (2/25)
Length of Visible Light 12h 09m
Length of Day
11h 18m
Full, 100% of the Moon is Illuminated
Feb 25
Full
Feb 25
Full
Mar 4
Last Quarter
Mar 11
New
Mar 19
First Quarter

Hourly Weather History & Observations

Time (EST) Temp. Windchill Dew Point Humidity Pressure Visibility Wind Dir Wind Speed Gust Speed Precip Events Conditions
12:08 AM 42.8 °F - 42.8 °F 100% 30.00 in 1.5 mi Calm Calm - N/A   Partly Cloudy
12:17 AM 42.8 °F - 42.8 °F 100% 30.00 in 0.8 mi Calm Calm - N/A   Mist
12:58 AM 43.0 °F - 43.0 °F 100% 30.01 in 0.2 mi Calm Calm - N/A Fog Fog
1:55 AM 42.8 °F - 41.0 °F 93% 30.00 in 1.2 mi Calm Calm - N/A   Scattered Clouds
1:58 AM 41.0 °F 39.0 °F 41.0 °F 100% 30.01 in 3.0 mi NE 3.5 mph - N/A   Mostly Cloudy
2:02 AM 42.8 °F 41.1 °F 41.0 °F 93% 30.01 in 1.8 mi NE 3.5 mph - N/A   Mostly Cloudy
2:06 AM 42.8 °F 40.1 °F 42.8 °F 100% 30.01 in 0.8 mi ENE 4.6 mph - N/A   Mist
2:47 AM 44.6 °F 37.8 °F 44.6 °F 100% 30.02 in 1.2 mi NNE 15.0 mph 19.6 mph N/A   Overcast
2:49 AM 44.6 °F 38.1 °F 44.6 °F 100% 30.02 in 3.0 mi NNE 13.8 mph - N/A   Overcast
2:58 AM 45.0 °F 38.9 °F 44.1 °F 97% 30.03 in 7.0 mi NE 12.7 mph 24.2 mph N/A   Overcast
3:42 AM 42.8 °F 35.1 °F 39.2 °F 87% 30.05 in 8.0 mi NNE 16.1 mph 25.3 mph N/A   Overcast
3:58 AM 41.0 °F 33.5 °F 37.0 °F 86% 30.05 in 10.0 mi NE 13.8 mph 25.3 mph N/A   Mostly Cloudy
4:35 AM 41.0 °F 33.9 °F 35.6 °F 81% 30.05 in 10.0 mi NNE 12.7 mph 20.7 mph N/A   Scattered Clouds
4:58 AM 39.9 °F 31.1 °F 35.1 °F 83% 30.07 in 10.0 mi NNE 17.3 mph 23.0 mph N/A   Clear
5:58 AM 39.0 °F 31.0 °F 32.0 °F 76% 30.09 in 10.0 mi NNE 13.8 mph 20.7 mph N/A   Clear
6:58 AM 39.0 °F 32.3 °F 32.0 °F 76% 30.12 in 10.0 mi NNE 10.4 mph - N/A   Clear
7:58 AM 39.9 °F 32.9 °F 32.0 °F 73% 30.15 in 10.0 mi NNE 11.5 mph - N/A   Clear
8:58 AM 41.0 °F 32.5 °F 32.0 °F 70% 30.16 in 10.0 mi NNE 17.3 mph 21.9 mph N/A   Clear
9:58 AM 43.0 °F 36.0 °F 33.1 °F 68% 30.16 in 10.0 mi NNE 13.8 mph - N/A   Clear
10:58 AM 44.1 °F 37.7 °F 33.1 °F 65% 30.19 in 10.0 mi North 12.7 mph - N/A   Clear
11:58 AM 44.1 °F 38.6 °F 33.1 °F 65% 30.17 in - NNE 10.4 mph 17.3 mph N/A   Clear
12:58 PM 45.0 °F 38.9 °F 33.1 °F 63% 30.17 in - NNE 12.7 mph - N/A   Clear
1:58 PM 45.0 °F 39.3 °F 32.0 °F 60% 30.16 in 10.0 mi NNE 11.5 mph 18.4 mph N/A   Clear
2:58 PM 45.0 °F 39.7 °F 32.0 °F 60% 30.13 in 10.0 mi NNE 10.4 mph - N/A   Clear
3:58 PM 45.0 °F 38.9 °F 30.9 °F 58% 30.14 in 10.0 mi NNE 12.7 mph 18.4 mph N/A   Clear
4:58 PM 44.1 °F 39.0 °F 30.9 °F 60% 30.14 in 10.0 mi NE 9.2 mph - N/A   Clear
5:58 PM 44.1 °F 40.1 °F 32.0 °F 63% 30.15 in 10.0 mi NE 6.9 mph - N/A   Clear
6:58 PM 43.0 °F 38.8 °F 32.0 °F 65% 30.17 in 10.0 mi NE 6.9 mph - N/A   Clear
7:58 PM 43.0 °F 37.2 °F 32.0 °F 65% 30.18 in 10.0 mi ENE 10.4 mph 16.1 mph N/A   Scattered Clouds
8:58 PM 43.0 °F 37.7 °F 30.9 °F 62% 30.18 in 10.0 mi NE 9.2 mph 18.4 mph N/A   Overcast
9:58 PM 42.1 °F 35.7 °F 32.0 °F 67% 30.16 in 10.0 mi NE 11.5 mph 18.4 mph N/A   Mostly Cloudy
10:58 PM 42.1 °F 37.1 °F 35.1 °F 76% 30.12 in 10.0 mi NE 8.1 mph 16.1 mph N/A   Clear
11:58 PM 43.0 °F 37.7 °F 36.0 °F 76% 30.11 in 10.0 mi NE 9.2 mph - N/A   Clear